Weather in Sosnovka

Russia / Novosibirsk Oblast     54°40′53″N   82°57′25″E
temp.,
°C
wind,
m/s
gust,
m/s
humid.,
%
clouds,
%
prec.,
mm/h
press.,
hPa
HPBL,
m
24 june, thu
thu2401:00+10ese468948 0.4 100877
04:00+9e5992100 0.0 1005151
07:00+10ene61190100 0.0 1004215
10:00+13ese5883100 0.0 1002251
13:00+11e71191100 3.7 1003331
16:00+12se358583 2.1 1002248
19:00+12sse3583100 2.5 1003213
22:00+10sse339024 0.0 100426
25 june, fri
fri2501:00+9ese2390100 0.0 100460
04:00+9e2292100 0.1 100437
07:00+10nnw229281 0.1 100570
10:00+11nnw458591 0.0 1006188
13:00+10nw5893100 0.9 1008307
16:00+10wsw3391100 1.1 101081
19:00+11ssw4689100 1.3 101192
22:00+11sw3486100 0.0 101243
26 june, sat
sat2601:00+10sw4589100 0.0 101370
04:00+9sw349199 0.0 101356
07:00+9wsw2389100 0.0 101459
10:00+10wsw3486100 0.0 1014160
13:00+11sw4585100 0.0 1014264
16:00+13sw3476100 0.0 1013315
19:00+14w347294 0.0 1013105
22:00+12wnw3383100 0.0 101412
27 june, sun
sun2701:00+12wsw3387100 0.0 101422
04:00+10wsw3493100 0.0 101455
07:00+10wsw3394100 0.0 101560
10:00+11sw349364 0.0 1015109
13:00+12sw458749 0.1 1014263
16:00+14wsw34805 0.3 1014302
19:00+14wsw458124 0.5 1013134
22:00+13sw22848 0.1 101311
28 june, mon
mon2801:00+12s228536 0.2 101311
04:00+11sse228799 0.0 101311
07:00+12se228792 0.0 101328
10:00+13sse1184100 0.1 1013115
13:00+14ssw228293 0.4 1013275
16:00+15nw007999 0.1 1013378
19:00+17ene237497 0.3 1012276
22:00+15ene3383100 0.1 101316